map of LDB home
Great Circle Mapper logo
LDB - Airport
Location
City:  Londrina, Paraná, Brazil
ICAO / IATA:SBLO / LDB

Details
Type:Airport (Aerodrome, Airfield)
Use:Public/Civil
Latitude:23°20'01"S (-23.333624)
Longitude:51°07'48"W (-51.130071)
Datum:WGS 1984
Elevation:1867 ft (569 m)
Variation:18.69°W (WMM2015 magnetic declination)
-0.15° annual change
Runways:1
Longest:6890 × 148 ft (2100 × 45 m), paved

Time
Time Zone:UTC-3 (DST-2)
Local Time:

Weather
METAR:SBLO 271100Z 19003KT CAVOK 19/16 Q1020
TAF:SBLO 270020Z 2706/2718 13005KT CAVOK TN17/2708Z TX28/2717Z
BECMG 2712/2714 9999 FEW025
RMK PDW

Related Locations
Nearby:
Farthest:OKA: 12220 mi / 19667 km
Okinawa [Naha AB], Ryukyu Island, JP

Find:

   beyond  
but within

Other Information
Maps:
NOTAMs:
Links:
Sources:

  
flag of Brazil
flag of Paraná
  

Sectional Chart

Flight Planning
at skyvector.com

Satellite Image

Google Maps Satellite View

 

Copyright © 2004-2015 Karl L. Swartz. All rights reserved.
The Great Circle Mapper name and logo are trademarks of the Great Circle Mapper.
All other trademarks mentioned herein belong to their respective owners.
Please see credits for attibutions and further copyright information.

  Follow gcmap on Facebook Follow gcmap on Twitter Follow gcmap on Google+

hCard Microformat

Geo Microformat